TimePST,TemperatureF,Dew PointF,Humidity,Sea Level PressureIn,VisibilityMPH,Wind Direction,Wind SpeedMPH,Gust SpeedMPH,PrecipitationIn,Events,Conditions,WindDirDegrees,DateUTC
12:56 AM,39.9,36.0,86,30.28,10.0,Calm,Calm,-,N/A,,Clear,0,2013-01-17 08:56:00
1:56 AM,37.9,36.0,93,30.29,10.0,Calm,Calm,-,N/A,,Clear,0,2013-01-17 09:56:00
2:56 AM,37.9,34.9,89,30.28,10.0,North,3.5,-,N/A,,Clear,360,2013-01-17 10:56:00
4:56 AM,41.9,34.9,76,30.25,10.0,North,3.5,-,N/A,,Clear,10,2013-01-17 12:56:00
5:56 AM,41.9,34.0,73,30.25,10.0,NNE,3.5,-,N/A,,Clear,30,2013-01-17 13:56:00
6:56 AM,41.0,32.9,73,30.25,10.0,NNE,4.6,-,N/A,,Clear,30,2013-01-17 14:56:00
7:56 AM,39.9,34.0,79,30.27,10.0,Calm,Calm,-,N/A,,Clear,0,2013-01-17 15:56:00
8:56 AM,43.0,36.9,79,30.29,10.0,SSE,3.5,-,N/A,,Clear,150,2013-01-17 16:56:00
9:56 AM,46.9,41.0,80,30.29,9.0,Calm,Calm,-,N/A,,Clear,0,2013-01-17 17:56:00
10:56 AM,47.8,43.9,86,30.28,9.0,WNW,3.5,-,N/A,,Clear,290,2013-01-17 18:56:00
11:56 AM,47.8,45.0,90,30.26,10.0,SW,4.6,-,N/A,,Clear,230,2013-01-17 19:56:00
12:19 PM,44.6,44.6,100,30.24,6.0,South,4.6,-,N/A,,Scattered Clouds,170,2013-01-17 20:19:00
12:26 PM,44.6,44.6,100,30.24,2.5,South,3.5,-,N/A,,Mostly Cloudy,190,2013-01-17 20:26:00
12:33 PM,44.6,44.6,100,30.24,1.2,Variable,3.5,-,N/A,,Mostly Cloudy,0,2013-01-17 20:33:00
12:56 PM,41.9,41.9,100,30.24,0.8,SE,3.5,-,N/A,,Overcast,140,2013-01-17 20:56:00
1:10 PM,42.8,42.8,100,30.23,0.2,Variable,3.5,-,N/A,Fog,Fog,0,2013-01-17 21:10:00
1:20 PM,42.8,42.8,100,30.22,0.8,SSE,3.5,-,N/A,,Overcast,160,2013-01-17 21:20:00
1:38 PM,42.8,42.8,100,30.22,1.2,Calm,Calm,-,N/A,,Overcast,0,2013-01-17 21:38:00
1:40 PM,44.6,44.6,100,30.22,2.0,South,3.5,-,N/A,,Mostly Cloudy,190,2013-01-17 21:40:00
1:48 PM,44.6,44.6,100,30.21,9.0,Calm,Calm,-,N/A,,Mostly Cloudy,0,2013-01-17 21:48:00
1:56 PM,45.9,45.0,97,30.22,10.0,WSW,3.5,-,N/A,,Partly Cloudy,250,2013-01-17 21:56:00
2:43 PM,42.8,42.8,100,30.21,1.8,SW,4.6,-,N/A,,Mostly Cloudy,220,2013-01-17 22:43:00
2:46 PM,42.8,42.8,100,30.21,1.0,Variable,3.5,-,N/A,,Mostly Cloudy,0,2013-01-17 22:46:00
2:56 PM,43.0,43.0,100,30.22,2.0,SSW,3.5,-,N/A,,Mostly Cloudy,210,2013-01-17 22:56:00
3:01 PM,42.8,42.8,100,30.21,1.2,SSW,3.5,-,N/A,,Overcast,210,2013-01-17 23:01:00
3:03 PM,42.8,42.8,100,30.21,0.5,Calm,Calm,-,N/A,Fog,Fog,0,2013-01-17 23:03:00
3:28 PM,42.8,42.8,100,30.21,1.0,South,3.5,-,N/A,,Overcast,190,2013-01-17 23:28:00
3:34 PM,41.0,41.0,100,30.21,0.5,Calm,Calm,-,N/A,Fog,Fog,0,2013-01-17 23:34:00
3:43 PM,41.0,41.0,100,30.21,0.2,Calm,Calm,-,N/A,Fog,Fog,0,2013-01-17 23:43:00
3:56 PM,41.0,41.0,100,30.22,0.2,Calm,Calm,-,N/A,Fog,Fog,0,2013-01-17 23:56:00
4:07 PM,41.0,41.0,100,30.21,0.5,Calm,Calm,-,N/A,Fog,Fog,0,2013-01-18 00:07:00
4:22 PM,41.0,41.0,100,30.21,0.2,Calm,Calm,-,N/A,Fog,Fog,0,2013-01-18 00:22:00
4:56 PM,39.9,39.9,100,30.23,0.2,Calm,Calm,-,N/A,Fog,Fog,0,2013-01-18 00:56:00
5:56 PM,38.8,38.8,100,30.23,0.2,Calm,Calm,-,0.00,Fog,Fog,0,2013-01-18 01:56:00
6:56 PM,37.9,37.9,100,30.22,0.2,Calm,Calm,-,N/A,Fog,Fog,0,2013-01-18 02:56:00
7:56 PM,36.9,36.9,100,30.22,0.2,Calm,Calm,-,N/A,Fog,Fog,0,2013-01-18 03:56:00
8:41 PM,35.6,35.6,100,30.20,0.2,Calm,Calm,-,N/A,Fog,Fog,0,2013-01-18 04:41:00
8:56 PM,36.0,36.0,100,30.22,0.2,Calm,Calm,-,N/A,Fog,Fog,0,2013-01-18 04:56:00
9:09 PM,35.6,35.6,100,30.20,0.2,NNE,3.5,-,0.00,Fog,Fog,20,2013-01-18 05:09:00
9:16 PM,35.6,35.6,100,30.20,0.2,NNE,3.5,-,0.00,Fog,Fog,30,2013-01-18 05:16:00
9:21 PM,35.6,35.6,100,30.20,0.8,NNE,3.5,-,0.00,,Overcast,30,2013-01-18 05:21:00
9:28 PM,35.6,35.6,100,30.20,0.2,Calm,Calm,-,0.00,Fog,Fog,0,2013-01-18 05:28:00
9:42 PM,35.6,35.6,100,30.20,0.2,Calm,Calm,-,0.00,Fog,Fog,0,2013-01-18 05:42:00
9:56 PM,36.0,36.0,100,30.21,0.2,Calm,Calm,-,0.00,Fog,Fog,0,2013-01-18 05:56:00
10:08 PM,35.6,35.6,100,30.20,0.5,Calm,Calm,-,N/A,Fog,Fog,0,2013-01-18 06:08:00
10:10 PM,35.6,35.6,100,30.20,1.0,Calm,Calm,-,N/A,,Mostly Cloudy,0,2013-01-18 06:10:00
10:16 PM,35.6,35.6,100,30.20,0.5,Calm,Calm,-,N/A,Fog,Fog,0,2013-01-18 06:16:00
10:42 PM,33.8,33.8,100,30.20,0.8,Calm,Calm,-,N/A,,Mist,0,2013-01-18 06:42:00
10:46 PM,33.8,33.8,100,30.20,1.2,Calm,Calm,-,N/A,,Mostly Cloudy,0,2013-01-18 06:46:00
10:49 PM,33.8,33.8,100,30.20,2.5,Calm,Calm,-,N/A,,Scattered Clouds,0,2013-01-18 06:49:00
10:56 PM,32.9,32.9,100,30.21,6.0,Calm,Calm,-,N/A,,Mostly Cloudy,0,2013-01-18 06:56:00
10:59 PM,33.8,33.8,100,30.20,2.5,Calm,Calm,-,N/A,,Scattered Clouds,0,2013-01-18 06:59:00
11:06 PM,33.8,33.8,100,30.20,1.2,NNW,3.5,-,N/A,,Mostly Cloudy,330,2013-01-18 07:06:00
11:08 PM,33.8,33.8,100,30.20,0.5,NNW,3.5,-,N/A,Fog,Fog,340,2013-01-18 07:08:00
11:16 PM,35.6,35.6,100,30.20,0.2,North,3.5,-,N/A,Fog,Fog,350,2013-01-18 07:16:00
11:36 PM,35.6,35.6,100,30.20,0.2,Calm,Calm,-,0.00,Fog,Fog,0,2013-01-18 07:36:00
11:56 PM,34.0,34.0,100,30.21,0.2,Calm,Calm,-,0.00,Fog,Fog,0,2013-01-18 07:56:00